Location: Asheville, NC
(35.6000°N, 82.5500°W)
Time: 21:53:31
(UTC-04:00)

STARS - Visible Passes

Search period start: 25 April 2018 00:00
Search period end: 05 May 2018 00:00
Orbit: 624 x 642 km, 98.3° (Epoch: 25 April)

Date Brightness Start Highest point End Pass type
(mag) Time Alt. Az. Time Alt. Az. Time Alt. Az.
25 Apr ? 05:55:38 10° E 05:57:25 12° ENE 05:59:12 10° NE visible
25 Apr ? 20:58:04 10° NNW 21:01:08 19° WNW 21:04:12 10° WSW visible
26 Apr ? 06:15:15 10° ESE 06:18:29 21° ENE 06:21:43 10° NNE visible
26 Apr ? 21:20:54 10° NW 21:22:12 11° WNW 21:23:30 10° W visible
29 Apr ? 20:46:29 10° NNW 20:50:05 25° WNW 20:53:40 10° SW visible
30 Apr ? 06:04:52 10° ESE 06:07:26 16° ENE 06:09:59 10° NNE visible
30 Apr ? 21:08:39 10° NNW 21:11:10 15° WNW 21:13:42 10° WSW visible
04 May ? 05:54:58 10° E 05:56:23 11° ENE 05:57:47 10° NE visible
04 May ? 20:56:53 10° NNW 21:00:07 20° WNW 21:03:21 10° WSW visible
